Previsão horária em Abaete

Hoje, 10 Abril, Sábado

Tempo Temperatura Precipitação Vento Pressão Humidade
00:00 +18°C° 0 mm 1 m/s 709 mmHg 78%
01:00 +18°C° 0 mm 1 m/s 709 mmHg 80%
02:00 +16°C° 0 mm 1 m/s 708 mmHg 82%
03:00 +16°C° 0 mm 1 m/s 708 mmHg 83%
04:00 +15°C° 0 mm 1 m/s 708 mmHg 85%
05:00 +15°C° 0 mm 1 m/s 708 mmHg 86%
06:00 +15°C° 0 mm 1 m/s 709 mmHg 87%
07:00 +18°C° 0 mm 1 m/s 709 mmHg 78%
08:00 +21°C° 0 mm 1 m/s 710 mmHg 69%
09:00 +23°C° 0 mm 1 m/s 710 mmHg 60%
10:00 +25°C° 0 mm 1 m/s 710 mmHg 55%
11:00 +27°C° 0 mm 1 m/s 710 mmHg 49%
12:00 +29°C° 0 mm 1 m/s 709 mmHg 43%
13:00 +29°C° 0 mm 1 m/s 709 mmHg 41%
14:00 +30°C° 0 mm 1 m/s 708 mmHg 39%
15:00 +28°C° 0 mm 0 m/s 707 mmHg 37%
16:00 +28°C° 0 mm 1 m/s 707 mmHg 43%
17:00 +26°C° 0 mm 1 m/s 706 mmHg 49%
18:00 +24°C° 0 mm 1 m/s 706 mmHg 54%
19:00 +23°C° 0 mm 1 m/s 706 mmHg 58%
20:00 +22°C° 0 mm 1 m/s 707 mmHg 62%
21:00 +21°C° 0 mm 1 m/s 707 mmHg 66%
22:00 +20°C° 0 mm 1 m/s 707 mmHg 68%
23:00 +20°C° 0 mm 1 m/s 707 mmHg 70%

Amanhã, 11 Abril, Domingo

Tempo Temperatura Precipitação Vento Pressão Humidade
00:00 +19°C° 0 mm 1 m/s 707 mmHg 72%
01:00 +19°C° 0 mm 1 m/s 707 mmHg 74%
02:00 +18°C° 0 mm 1 m/s 707 mmHg 76%
03:00 +18°C° 0 mm 1 m/s 707 mmHg 78%
04:00 +18°C° 0 mm 1 m/s 707 mmHg 81%
05:00 +16°C° 0 mm 1 m/s 707 mmHg 84%
06:00 +16°C° 0 mm 1 m/s 707 mmHg 87%
07:00 +19°C° 0 mm 1 m/s 708 mmHg 79%
08:00 +22°C° 0 mm 1 m/s 709 mmHg 70%
09:00 +24°C° 0 mm 1 m/s 709 mmHg 62%
10:00 +26°C° 0 mm 1 m/s 709 mmHg 55%
11:00 +28°C° 0 mm 1 m/s 709 mmHg 47%
12:00 +30°C° 0 mm 1 m/s 709 mmHg 40%
13:00 +31°C° 0 mm 1 m/s 708 mmHg 38%
14:00 +31°C° 0 mm 1 m/s 707 mmHg 35%
15:00 +31°C° 0 mm 2 m/s 707 mmHg 33%
16:00 +29°C° 0 mm 2 m/s 707 mmHg 40%
17:00 +27°C° 0 mm 2 m/s 707 mmHg 46%
18:00 +25°C° 0 mm 2 m/s 707 mmHg 53%
19:00 +24°C° 0 mm 2 m/s 707 mmHg 54%
20:00 +23°C° 0 mm 1 m/s 707 mmHg 55%
21:00 +22°C° 0 mm 1 m/s 707 mmHg 56%
22:00 +21°C° 0 mm 1 m/s 707 mmHg 58%
23:00 +21°C° 0 mm 1 m/s 707 mmHg 60%

Depois de amanhã, 12 Abril, Segunda-feira

Tempo Temperatura Precipitação Vento Pressão Humidade
00:00 +20°C° 0 mm 1 m/s 707 mmHg 62%
01:00 +19°C° 0 mm 1 m/s 707 mmHg 64%
02:00 +17°C° 0 mm 0 m/s 707 mmHg 66%
03:00 +16°C° 0 mm 0 m/s 707 mmHg 68%
04:00 +18°C° 0 mm 1 m/s 707 mmHg 69%
05:00 +18°C° 0 mm 1 m/s 707 mmHg 71%
06:00 +16°C° 0 mm 1 m/s 707 mmHg 73%
07:00 +20°C° 0 mm 1 m/s 708 mmHg 65%
08:00 +23°C° 0 mm 1 m/s 709 mmHg 58%
09:00 +25°C° 0 mm 1 m/s 709 mmHg 51%
10:00 +27°C° 0 mm 1 m/s 709 mmHg 44%
11:00 +29°C° 0 mm 1 m/s 709 mmHg 38%
12:00 +31°C° 0 mm 1 m/s 709 mmHg 31%
13:00 +32°C° 0 mm 1 m/s 708 mmHg 29%
14:00 +32°C° 0 mm 2 m/s 707 mmHg 28%
15:00 +32°C° 0 mm 2 m/s 707 mmHg 26%
16:00 +30°C° 0 mm 2 m/s 707 mmHg 33%
17:00 +27°C° 0 mm 2 m/s 707 mmHg 40%
18:00 +25°C° 0 mm 2 m/s 707 mmHg 47%
19:00 +24°C° 0 mm 2 m/s 707 mmHg 50%
20:00 +23°C° 0 mm 2 m/s 707 mmHg 52%
21:00 +22°C° 0 mm 1 m/s 708 mmHg 55%
22:00 +22°C° 0 mm 1 m/s 708 mmHg 58%
23:00 +21°C° 0 mm 1 m/s 708 mmHg 61%

13 Abril, Terça-feira

Tempo Temperatura Precipitação Vento Pressão Humidade
00:00 +20°C° 0 mm 1 m/s 708 mmHg 64%
01:00 +20°C° 0 mm 1 m/s 707 mmHg 66%
02:00 +19°C° 0 mm 1 m/s 707 mmHg 69%
03:00 +19°C° 0 mm 1 m/s 707 mmHg 72%
04:00 +19°C° 0 mm 1 m/s 707 mmHg 74%
05:00 +18°C° 0 mm 1 m/s 708 mmHg 76%
06:00 +17°C° 0 mm 2 m/s 708 mmHg 78%
07:00 +19°C° 0 mm 2 m/s 709 mmHg 70%
08:00 +23°C° 0 mm 2 m/s 709 mmHg 62%
09:00 +25°C° 0 mm 2 m/s 710 mmHg 54%
10:00 +27°C° 0 mm 2 m/s 710 mmHg 47%
11:00 +29°C° 0 mm 2 m/s 710 mmHg 40%
12:00 +31°C° 0 mm 2 m/s 709 mmHg 33%
13:00 +32°C° 0 mm 2 m/s 709 mmHg 30%
14:00 +32°C° 0 mm 2 m/s 708 mmHg 28%
15:00 +32°C° 0 mm 2 m/s 708 mmHg 26%
16:00 +30°C° 0 mm 2 m/s 707 mmHg 32%
17:00 +27°C° 0 mm 2 m/s 707 mmHg 39%
18:00 +25°C° 0 mm 2 m/s 707 mmHg 46%
19:00 +24°C° 0 mm 2 m/s 707 mmHg 48%
20:00 +23°C° 0 mm 2 m/s 708 mmHg 49%
21:00 +21°C° 0 mm 2 m/s 708 mmHg 51%
22:00 +20°C° 0 mm 2 m/s 708 mmHg 54%
23:00 +21°C° 0 mm 1 m/s 708 mmHg 58%

14 Abril, Quarta-feira

Tempo Temperatura Precipitação Vento Pressão Humidade
00:00 +20°C° 0 mm 1 m/s 708 mmHg 61%
01:00 +19°C° 0 mm 1 m/s 708 mmHg 66%
02:00 +19°C° 0 mm 1 m/s 707 mmHg 71%
03:00 +18°C° 0 mm 1 m/s 707 mmHg 75%
04:00 +18°C° 0 mm 1 m/s 707 mmHg 80%
05:00 +18°C° 0 mm 1 m/s 707 mmHg 85%
06:00 +16°C° 0 mm 1 m/s 708 mmHg 90%
07:00 +20°C° 0 mm 1 m/s 708 mmHg 82%
08:00 +22°C° 0 mm 1 m/s 709 mmHg 74%
09:00 +25°C° 0 mm 2 m/s 709 mmHg 65%
10:00 +27°C° 0 mm 2 m/s 709 mmHg 57%
11:00 +29°C° 0 mm 1 m/s 709 mmHg 48%
12:00 +31°C° 0 mm 1 m/s 709 mmHg 39%
13:00 +31°C° 0 mm 1 m/s 708 mmHg 37%
14:00 +32°C° 0 mm 1 m/s 708 mmHg 34%
15:00 +30°C° 0 mm 0 m/s 707 mmHg 31%
16:00 +28°C° 0 mm 0 m/s 707 mmHg 37%
17:00 +28°C° 0 mm 1 m/s 707 mmHg 43%
18:00 +26°C° 0 mm 1 m/s 707 mmHg 49%
19:00 +25°C° 0 mm 1 m/s 707 mmHg 53%
20:00 +24°C° 0 mm 2 m/s 708 mmHg 58%
21:00 +23°C° 0 mm 2 m/s 708 mmHg 62%
22:00 +21°C° 0 mm 2 m/s 708 mmHg 69%
23:00 +21°C° 0 mm 1 m/s 708 mmHg 75%

15 Abril, Quinta-feira

Tempo Temperatura Precipitação Vento Pressão Humidade
00:00 +20°C° 0 mm 1 m/s 708 mmHg 82%
01:00 +20°C° 0 mm 1 m/s 708 mmHg 85%
02:00 +19°C° 0 mm 1 m/s 708 mmHg 89%
03:00 +19°C° 0 mm 1 m/s 707 mmHg 93%
04:00 +18°C° 0 mm 1 m/s 708 mmHg 94%
05:00 +18°C° 0 mm 1 m/s 708 mmHg 95%
06:00 +18°C° 0 mm 1 m/s 708 mmHg 96%
07:00 +19°C° 0 mm 2 m/s 709 mmHg 87%
08:00 +21°C° 0 mm 2 m/s 709 mmHg 77%
09:00 +24°C° 0 mm 2 m/s 710 mmHg 68%
10:00 +26°C° 0 mm 2 m/s 710 mmHg 61%
11:00 +28°C° 0 mm 1 m/s 709 mmHg 53%
12:00 +30°C° 0 mm 1 m/s 709 mmHg 46%
13:00 +31°C° 0 mm 1 m/s 708 mmHg 43%
14:00 +31°C° 0 mm 1 m/s 708 mmHg 40%
15:00 +29°C° 0 mm 0 m/s 707 mmHg 38%
16:00 +30°C° 0 mm 1 m/s 707 mmHg 42%
17:00 +28°C° 0 mm 1 m/s 707 mmHg 47%
18:00 +27°C° 0 mm 2 m/s 707 mmHg 52%
19:00 +26°C° 0 mm 2 m/s 707 mmHg 54%
20:00 +26°C° 0 mm 2 m/s 707 mmHg 56%
21:00 +25°C° 0 mm 2 m/s 707 mmHg 58%
22:00 +25°C° 0 mm 2 m/s 707 mmHg 61%
23:00 +24°C° 0 mm 2 m/s 708 mmHg 64%
Mostrar mais